TimeMDT,TemperatureF,Dew PointF,Humidity,Sea Level PressureIn,VisibilityMPH,Wind Direction,Wind SpeedMPH,Gust SpeedMPH,PrecipitationIn,Events,Conditions,WindDirDegrees,DateUTC
12:53 AM,30.9,23.0,72,30.16,10.0,NNE,8.1,-,N/A,,Clear,30,2013-04-02 06:53:00
1:53 AM,30.0,23.0,75,30.16,10.0,NNE,10.4,-,N/A,,Clear,30,2013-04-02 07:53:00
2:53 AM,28.9,23.0,78,30.14,10.0,NNE,11.5,-,N/A,,Clear,30,2013-04-02 08:53:00
3:53 AM,28.0,21.9,78,30.15,10.0,NNE,9.2,-,N/A,,Clear,30,2013-04-02 09:53:00
4:53 AM,28.0,21.9,78,30.15,10.0,NNE,10.4,-,N/A,,Clear,20,2013-04-02 10:53:00
5:53 AM,27.0,21.0,78,30.16,10.0,NNE,11.5,-,N/A,,Clear,30,2013-04-02 11:53:00
6:53 AM,26.1,21.0,81,30.17,10.0,NE,10.4,-,N/A,,Clear,40,2013-04-02 12:53:00
7:53 AM,28.9,21.9,75,30.19,10.0,NE,10.4,-,N/A,,Clear,40,2013-04-02 13:53:00
8:53 AM,34.0,24.1,67,30.19,10.0,NE,8.1,-,N/A,,Clear,40,2013-04-02 14:53:00
9:53 AM,39.0,25.0,57,30.18,10.0,East,4.6,-,N/A,,Clear,100,2013-04-02 15:53:00
10:53 AM,44.1,27.0,51,30.17,10.0,ESE,6.9,-,N/A,,Clear,110,2013-04-02 16:53:00
11:53 AM,51.1,28.0,41,30.14,10.0,East,6.9,-,N/A,,Clear,80,2013-04-02 17:53:00
12:53 PM,55.9,26.1,32,30.10,10.0,Variable,3.5,-,N/A,,Clear,0,2013-04-02 18:53:00
1:53 PM,60.1,24.1,25,30.07,10.0,SSE,11.5,18.4,N/A,,Clear,160,2013-04-02 19:53:00
2:53 PM,63.0,25.0,24,30.04,10.0,SE,11.5,18.4,N/A,,Clear,130,2013-04-02 20:53:00
3:53 PM,64.9,21.9,19,30.00,10.0,SSE,6.9,16.1,N/A,,Clear,150,2013-04-02 21:53:00
4:53 PM,66.0,23.0,20,29.98,10.0,SSE,9.2,19.6,N/A,,Clear,160,2013-04-02 22:53:00
5:53 PM,64.9,23.0,20,29.97,10.0,SSE,11.5,-,N/A,,Clear,150,2013-04-02 23:53:00
6:53 PM,62.1,23.0,22,29.96,10.0,SE,10.4,-,N/A,,Clear,140,2013-04-03 00:53:00
7:53 PM,57.9,21.9,25,29.95,10.0,SE,8.1,-,N/A,,Clear,130,2013-04-03 01:53:00
8:53 PM,54.0,23.0,30,29.96,10.0,SE,10.4,-,N/A,,Clear,140,2013-04-03 02:53:00
9:53 PM,50.0,24.1,36,29.96,10.0,SSE,8.1,-,N/A,,Clear,160,2013-04-03 03:53:00
10:53 PM,48.9,24.1,38,29.94,10.0,South,11.5,-,N/A,,Clear,170,2013-04-03 04:53:00
11:53 PM,46.9,25.0,42,29.91,10.0,SSE,12.7,-,N/A,,Partly Cloudy,160,2013-04-03 05:53:00